Simultaneous Nadir Overpasses (SNOs) Predictions

Prediction of SNOs between METOP-B and NPP Satellite Orbit:

Table of predicted SNOs for the next 14.0 days since TLE Epoch: 11/29/2019
Index Date (METOP-B) Time (METOP-B) Lat,Lon (METOP-B) SZA (METOP-B ) Date (NPP) Time (NPP) Lat,Lon (NPP) SZA (NPP ) Distance(km) Time Diff (sec)
1 12/08/2019 19:53:48 73.43,-125.10 96.13 12/08/2019 19:52:41 73.48,-127.88 96.27 88.37 67
2 12/08/2019 20:44:31 -73.36, 42.07 83.94 12/08/2019 20:43:23 -73.37, 39.66 83.84 76.78 68
3 12/08/2019 21:35:15 73.16,-151.04 95.88 12/08/2019 21:34:04 73.13,-152.49 95.91 46.93 71
4 12/08/2019 22:25:59 -73.04, 16.03 84.23 12/08/2019 22:24:47 -73.08, 14.93 84.15 35.84 72
5 12/08/2019 23:16:43 72.84,-177.07 95.59 12/08/2019 23:15:29 72.89,-177.34 95.65 10.45 74
6 12/09/2019 00:07:26 -72.77, -9.88 84.48 12/09/2019 00:06:11 -72.79, -9.81 84.46 2.94 75
7 12/09/2019 00:58:06 72.77, 157.45 95.53 12/09/2019 00:56:57 72.79, 157.48 95.56 3.00 69
8 12/09/2019 01:48:47 -72.80, -35.15 84.44 12/09/2019 01:47:41 -72.79, -35.20 84.44 1.80 66
9 12/09/2019 02:39:27 72.80, 132.17 95.57 12/09/2019 02:38:27 72.80, 132.09 95.57 2.64 60
10 12/09/2019 03:30:09 -72.78, -60.53 84.45 12/09/2019 03:29:11 -72.80, -60.59 84.43 2.80 58
11 12/09/2019 04:20:49 72.78, 106.80 95.55 12/09/2019 04:19:56 72.76, 106.81 95.54 2.79 53
12 12/09/2019 05:11:31 -72.76, -85.91 84.46 12/09/2019 05:10:40 -72.76, -85.88 84.46 1.38 51
13 12/09/2019 06:02:11 72.76, 81.42 95.54 12/09/2019 06:01:26 72.76, 81.42 95.55 0.19 45
14 12/09/2019 06:52:53 -72.75,-111.29 84.47 12/09/2019 06:52:10 -72.76,-111.27 84.45 2.28 43
15 12/09/2019 07:43:33 72.74, 56.04 95.53 12/09/2019 07:42:56 72.77, 56.03 95.57 3.05 37
16 12/09/2019 08:34:14 -72.78,-136.56 84.44 12/09/2019 08:33:40 -72.77,-136.66 84.43 3.08 34
17 12/09/2019 09:24:55 72.72, 30.66 95.52 12/09/2019 09:24:25 72.73, 30.75 95.53 2.90 30
18 12/09/2019 10:15:36 -72.76,-161.94 84.45 12/09/2019 10:15:09 -72.73,-161.94 84.47 3.37 27
19 12/09/2019 11:06:16 72.76, 5.39 95.56 12/09/2019 11:05:55 72.73, 5.36 95.54 2.63 21
20 12/09/2019 11:56:58 -72.74, 172.68 84.46 12/09/2019 11:56:39 -72.74, 172.67 84.46 0.57 19
21 12/09/2019 12:47:38 72.74, -19.99 95.55 12/09/2019 12:47:25 72.74, -20.03 95.56 1.39 13
22 12/09/2019 13:38:20 -72.72, 147.30 84.47 12/09/2019 13:38:09 -72.74, 147.28 84.44 2.45 11
23 12/09/2019 14:29:00 72.72, -45.37 95.54 12/09/2019 14:28:54 72.70, -45.32 95.52 2.92 6
24 12/09/2019 15:19:42 -72.70, 121.92 84.48 12/09/2019 15:19:38 -72.70, 122.00 84.48 2.48 4
25 12/09/2019 16:10:22 72.70, -70.75 95.53 12/09/2019 16:10:24 72.71, -70.71 95.53 1.55 2
26 12/09/2019 17:01:04 -72.68, 96.54 84.49 12/09/2019 17:01:08 -72.71, 96.61 84.47 3.25 4
27 12/09/2019 17:51:43 72.73, -96.02 95.57 12/09/2019 17:51:54 72.71, -96.10 95.55 3.22 11
28 12/09/2019 18:42:25 -72.72, 71.27 84.45 12/09/2019 18:42:38 -72.71, 71.22 84.45 1.75 13
29 12/09/2019 19:33:05 72.71,-121.40 95.56 12/09/2019 19:33:24 72.72,-121.49 95.56 2.86 19
30 12/09/2019 20:23:47 -72.70, 45.89 84.46 12/09/2019 20:24:07 -72.67, 45.93 84.49 3.31 20
31 12/09/2019 21:14:27 72.69,-146.78 95.54 12/09/2019 21:14:53 72.68,-146.77 95.52 2.02 26
32 12/09/2019 22:05:09 -72.68, 20.51 84.47 12/09/2019 22:05:37 -72.68, 20.54 84.48 1.00 28
33 12/09/2019 22:55:49 72.68,-172.16 95.53 12/09/2019 22:56:23 72.68,-172.16 95.54 0.91 34
34 12/09/2019 23:46:31 -72.66, -4.86 84.48 12/09/2019 23:47:07 -72.69, -4.85 84.46 2.80 36
35 12/10/2019 00:37:11 72.66, 162.46 95.52 12/10/2019 00:37:52 72.64, 162.55 95.50 3.57 41
36 12/10/2019 01:27:52 -72.69, -30.14 84.45 12/10/2019 01:28:37 -72.69, -30.23 84.45 3.19 45
37 12/10/2019 02:18:33 72.64, 137.08 95.51 12/10/2019 02:19:22 72.65, 137.17 95.51 2.90 49
38 12/10/2019 03:09:14 -72.67, -55.52 84.46 12/10/2019 03:10:06 -72.65, -55.52 84.49 2.78 52
39 12/10/2019 03:59:54 72.67, 111.81 95.55 12/10/2019 04:00:52 72.66, 111.78 95.53 2.03 58
40 12/10/2019 04:50:36 -72.66, -80.89 84.47 12/10/2019 04:51:36 -72.66, -80.91 84.47 0.49 60
41 12/10/2019 05:41:16 72.65, 86.43 95.54 12/10/2019 05:42:22 72.66, 86.39 95.54 1.94 66
42 12/10/2019 06:31:58 -72.64,-106.27 84.48 12/10/2019 06:33:06 -72.66,-106.30 84.46 3.10 68
43 12/10/2019 07:22:38 72.63, 61.05 95.53 12/10/2019 07:23:51 72.62, 61.10 95.50 2.19 73
44 12/10/2019 08:13:21 -72.57,-131.75 84.54 12/10/2019 08:14:35 -72.62,-131.58 84.50 8.15 74
45 12/10/2019 09:04:05 72.36, 35.16 95.28 12/10/2019 09:05:16 72.37, 36.22 95.25 35.78 71
46 12/10/2019 09:54:48 -72.29,-157.64 84.78 12/10/2019 09:55:59 -72.32,-156.36 84.81 43.23 71
47 12/10/2019 10:45:33 72.03, 9.19 94.98 12/10/2019 10:46:40 72.07, 11.43 94.94 76.97 67
48 12/10/2019 11:36:16 -71.97, 176.40 85.08 12/10/2019 11:37:23 -72.02, 178.84 85.11 84.26 67




NCC Satellite Simultaneous Nadir Overpasses (SNOs) Prediction Service
